CARTOSAT-2A

Last updated on Mon Sep 07 2026 00:02:45 GMT+0000 (Coordinated Universal Time)

1 32783U 08021A 26249.62215940 .00000554 00000+0 81061-4 0 9999 2 32783 97.7566 295.5236 0011079 200.1642 159.9134 14.79320661990841
UTC large
Height (km)
Speed (km/s)
/
Latitude / Longitude
Inclination (degrees)
Orbital Period (minutes)
Azimuth
Elevation
Range (km)
Doppler Factor

Next 0 passes for location: London (51.5072 / 0.1276)

No passes found over London.
CARTOSAT-2A